Time,TemperatureF,DewpointF,PressureIn,WindDirection,WindDirectionDegrees,WindSpeedMPH,WindSpeedGustMPH,Humidity,HourlyPrecipIn,Conditions,Clouds,dailyrainin,SoftwareType,DateUTC
2013-03-05 00:01:00,28.0,23.0,30.00,West,281,13.0,20.0,82,0.00,,,0.00,,2013-03-05 06:01:00,
2013-03-05 00:11:00,28.0,23.0,30.00,West,281,13.0,20.0,82,0.00,,,0.00,,2013-03-05 06:11:00,
2013-03-05 00:22:00,28.0,24.0,30.00,WNW,300,10.0,13.0,83,0.00,,,0.00,,2013-03-05 06:22:00,
2013-03-05 00:31:00,28.0,24.0,30.00,WNW,289,10.0,14.0,83,0.00,,,0.00,,2013-03-05 06:31:00,
2013-03-05 00:41:00,28.0,24.0,30.00,WNW,289,10.0,14.0,83,0.00,,,0.00,,2013-03-05 06:41:00,
2013-03-05 00:52:00,28.0,23.0,30.00,WNW,296,9.0,13.0,82,0.00,,,0.00,,2013-03-05 06:52:00,
2013-03-05 01:01:00,28.0,24.0,30.00,WNW,286,9.0,14.0,84,0.00,,,0.00,,2013-03-05 07:01:00,
2013-03-05 01:11:00,28.0,24.0,30.00,WNW,286,9.0,14.0,84,0.00,,,0.00,,2013-03-05 07:11:00,
2013-03-05 01:21:00,28.0,24.0,30.00,WNW,299,9.0,14.0,86,0.00,,,0.00,,2013-03-05 07:21:00,
2013-03-05 01:31:00,28.0,24.0,30.01,WNW,296,10.0,16.0,86,0.00,,,0.00,,2013-03-05 07:31:00,
2013-03-05 01:41:00,28.0,24.0,30.01,WNW,296,10.0,16.0,86,0.00,,,0.00,,2013-03-05 07:41:00,
2013-03-05 01:52:00,27.0,24.0,30.01,WNW,288,13.0,18.0,90,0.00,,,0.00,,2013-03-05 07:52:00,
2013-03-05 02:02:00,27.0,26.0,30.01,WNW,287,14.0,15.0,95,0.00,,,0.00,,2013-03-05 08:02:00,
2013-03-05 02:11:00,27.0,26.0,30.01,WNW,287,14.0,15.0,95,0.00,,,0.00,,2013-03-05 08:11:00,
2013-03-05 02:21:00,26.0,24.0,30.01,WNW,296,13.0,16.0,92,0.00,,,0.00,,2013-03-05 08:21:00,
2013-03-05 02:31:00,26.0,23.0,30.01,WNW,284,13.0,17.0,89,0.00,,,0.00,,2013-03-05 08:31:00,
2013-03-05 02:41:00,26.0,23.0,30.01,WNW,284,13.0,17.0,89,0.00,,,0.00,,2013-03-05 08:41:00,
2013-03-05 02:52:00,26.0,23.0,30.01,WNW,292,10.0,16.0,88,0.00,,,0.00,,2013-03-05 08:52:00,
2013-03-05 03:01:00,26.0,23.0,30.01,WNW,296,10.0,15.0,88,0.00,,,0.00,,2013-03-05 09:01:00,
2013-03-05 03:11:00,26.0,23.0,30.01,WNW,282,13.0,16.0,87,0.00,,,0.00,,2013-03-05 09:11:00,
2013-03-05 03:21:00,26.0,23.0,30.01,WNW,282,13.0,16.0,87,0.00,,,0.00,,2013-03-05 09:21:00,
2013-03-05 03:31:00,25.0,22.0,30.01,WNW,295,10.0,17.0,87,0.00,,,0.00,,2013-03-05 09:31:00,
2013-03-05 03:42:00,25.0,22.0,30.01,WNW,295,10.0,17.0,87,0.00,,,0.00,,2013-03-05 09:42:00,
2013-03-05 03:52:00,25.0,22.0,30.00,WNW,293,13.0,17.0,87,0.00,,,0.00,,2013-03-05 09:52:00,
2013-03-05 04:01:00,25.0,22.0,30.00,WNW,287,9.0,10.0,88,0.00,,,0.00,,2013-03-05 10:01:00,
2013-03-05 04:11:00,25.0,22.0,30.00,WNW,287,9.0,10.0,88,0.00,,,0.00,,2013-03-05 10:11:00,
2013-03-05 04:21:00,24.0,22.0,30.00,WNW,285,9.0,15.0,91,0.00,,,0.00,,2013-03-05 10:21:00,
2013-03-05 04:32:00,25.0,22.0,30.00,WNW,289,14.0,16.0,90,0.00,,,0.00,,2013-03-05 10:32:00,
2013-03-05 04:42:00,25.0,22.0,30.00,WNW,289,14.0,16.0,90,0.00,,,0.00,,2013-03-05 10:42:00,
2013-03-05 04:52:00,25.0,23.0,30.00,WNW,296,8.0,12.0,93,0.00,,,0.00,,2013-03-05 10:52:00,
2013-03-05 05:01:00,25.0,24.0,30.00,WNW,283,9.0,14.0,95,0.00,,,0.00,,2013-03-05 11:01:00,
2013-03-05 05:11:00,25.0,24.0,30.00,West,272,10.0,16.0,95,0.00,,,0.00,,2013-03-05 11:11:00,
2013-03-05 05:22:00,25.0,24.0,30.00,West,272,10.0,16.0,95,0.00,,,0.00,,2013-03-05 11:22:00,
2013-03-05 05:32:00,25.0,24.0,30.00,West,277,12.0,16.0,95,0.00,,,0.00,,2013-03-05 11:32:00,
2013-03-05 05:42:00,25.0,24.0,30.00,West,277,12.0,16.0,95,0.00,,,0.00,,2013-03-05 11:42:00,
2013-03-05 05:52:00,25.0,24.0,30.00,WNW,286,10.0,12.0,96,0.00,,,0.00,,2013-03-05 11:52:00,
2013-03-05 06:02:00,25.0,24.0,30.00,WNW,293,8.0,12.0,97,0.00,,,0.00,,2013-03-05 12:02:00,
2013-03-05 06:11:00,25.0,24.0,30.00,WNW,293,8.0,12.0,97,0.00,,,0.00,,2013-03-05 12:11:00,
2013-03-05 06:22:00,25.0,24.0,30.00,West,281,10.0,16.0,97,0.00,,,0.00,,2013-03-05 12:22:00,
2013-03-05 06:32:00,26.0,26.0,30.00,West,281,12.0,15.0,98,0.00,,,0.00,,2013-03-05 12:32:00,
2013-03-05 06:42:00,26.0,26.0,30.00,West,281,12.0,15.0,98,0.00,,,0.00,,2013-03-05 12:42:00,
2013-03-05 06:52:00,26.0,26.0,30.00,WNW,285,13.0,21.0,98,0.00,,,0.00,,2013-03-05 12:52:00,
2013-03-05 07:02:00,26.0,26.0,30.00,WNW,286,13.0,22.0,98,0.00,,,0.00,,2013-03-05 13:02:00,
2013-03-05 07:11:00,26.0,26.0,30.00,WNW,286,13.0,22.0,98,0.00,,,0.00,,2013-03-05 13:11:00,
2013-03-05 07:21:00,26.0,26.0,30.01,WNW,286,13.0,20.0,99,0.00,,,0.00,,2013-03-05 13:21:00,
2013-03-05 07:32:00,27.0,27.0,30.01,WNW,290,13.0,17.0,99,0.00,,,0.00,,2013-03-05 13:32:00,
2013-03-05 07:42:00,27.0,27.0,30.01,WNW,290,13.0,17.0,99,0.00,,,0.00,,2013-03-05 13:42:00,
2013-03-05 07:52:00,26.0,26.0,30.01,WNW,290,20.0,25.0,99,0.00,,,0.00,,2013-03-05 13:52:00,
2013-03-05 08:02:00,26.0,26.0,30.02,WNW,289,16.0,23.0,99,0.00,,,0.00,,2013-03-05 14:02:00,
2013-03-05 08:11:00,26.0,26.0,30.02,WNW,289,16.0,23.0,99,0.00,,,0.00,,2013-03-05 14:11:00,
2013-03-05 08:21:00,26.0,26.0,30.03,WNW,293,15.0,18.0,99,0.00,,,0.00,,2013-03-05 14:21:00,
2013-03-05 08:32:00,26.0,26.0,30.04,WNW,293,17.0,21.0,99,0.00,,,0.00,,2013-03-05 14:32:00,
2013-03-05 08:42:00,26.0,26.0,30.04,WNW,293,17.0,21.0,99,0.00,,,0.00,,2013-03-05 14:42:00,
2013-03-05 08:52:00,26.0,26.0,30.05,WNW,291,18.0,29.0,99,0.00,,,0.00,,2013-03-05 14:52:00,
2013-03-05 09:01:00,26.0,26.0,30.06,WNW,301,14.0,20.0,99,0.00,,,0.00,,2013-03-05 15:01:00,
2013-03-05 09:11:00,26.0,26.0,30.06,WNW,301,14.0,20.0,99,0.00,,,0.00,,2013-03-05 15:11:00,
2013-03-05 09:21:00,25.0,25.0,30.06,WNW,301,17.0,22.0,99,0.00,,,0.00,,2013-03-05 15:21:00,
2013-03-05 09:32:00,25.0,25.0,30.07,WNW,299,16.0,26.0,99,0.00,,,0.00,,2013-03-05 15:32:00,
2013-03-05 09:42:00,25.0,25.0,30.07,WNW,299,16.0,26.0,99,0.00,,,0.00,,2013-03-05 15:42:00,
2013-03-05 09:52:00,25.0,25.0,30.08,WNW,297,18.0,29.0,99,0.00,,,0.00,,2013-03-05 15:52:00,
2013-03-05 10:01:00,25.0,25.0,30.08,WNW,296,22.0,29.0,99,0.00,,,0.00,,2013-03-05 16:01:00,
2013-03-05 10:11:00,25.0,25.0,30.08,WNW,296,22.0,29.0,99,0.00,,,0.00,,2013-03-05 16:11:00,
2013-03-05 10:21:00,25.0,24.0,30.09,WNW,301,17.0,24.0,97,0.00,,,0.00,,2013-03-05 16:21:00,
2013-03-05 10:32:00,26.0,26.0,30.10,NW,310,15.0,28.0,98,0.00,,,0.00,,2013-03-05 16:32:00,
2013-03-05 10:42:00,26.0,26.0,30.10,NW,310,15.0,28.0,98,0.00,,,0.00,,2013-03-05 16:42:00,
2013-03-05 10:52:00,25.0,25.0,30.11,WNW,293,20.0,28.0,98,0.00,,,0.00,,2013-03-05 16:52:00,
2013-03-05 11:01:00,26.0,25.0,30.12,NW,306,20.0,24.0,97,0.00,,,0.00,,2013-03-05 17:01:00,
2013-03-05 11:11:00,26.0,25.0,30.12,NW,306,20.0,24.0,97,0.00,,,0.00,,2013-03-05 17:11:00,
2013-03-05 11:21:00,26.0,25.0,30.13,NW,309,14.0,18.0,97,0.00,,,0.00,,2013-03-05 17:21:00,
2013-03-05 11:32:00,26.0,25.0,30.14,NW,304,18.0,25.0,96,0.00,,,0.00,,2013-03-05 17:32:00,
2013-03-05 11:41:00,26.0,25.0,30.14,NW,304,18.0,25.0,96,0.00,,,0.00,,2013-03-05 17:41:00,
2013-03-05 11:52:00,26.0,25.0,30.14,NW,306,15.0,23.0,96,0.00,,,0.00,,2013-03-05 17:52:00,
2013-03-05 12:01:00,26.0,25.0,30.15,NW,308,17.0,24.0,96,0.00,,,0.00,,2013-03-05 18:01:00,
2013-03-05 12:11:00,26.0,25.0,30.15,NW,308,17.0,24.0,96,0.00,,,0.00,,2013-03-05 18:11:00,
2013-03-05 12:21:00,26.0,24.0,30.16,NW,307,16.0,22.0,92,0.00,,,0.00,,2013-03-05 18:21:00,
2013-03-05 12:32:00,26.0,24.0,30.17,WNW,298,20.0,30.0,92,0.00,,,0.00,,2013-03-05 18:32:00,
2013-03-05 12:42:00,26.0,24.0,30.17,WNW,298,20.0,30.0,92,0.00,,,0.00,,2013-03-05 18:42:00,
2013-03-05 12:53:00,26.0,24.0,30.17,WNW,296,16.0,26.0,91,0.00,,,0.00,,2013-03-05 18:53:00,
2013-03-05 13:01:00,26.0,23.0,30.18,NW,304,16.0,22.0,90,0.00,,,0.00,,2013-03-05 19:01:00,
2013-03-05 13:11:00,26.0,23.0,30.18,NW,304,16.0,22.0,90,0.00,,,0.00,,2013-03-05 19:11:00,
2013-03-05 13:21:00,26.0,23.0,30.19,WNW,299,16.0,26.0,89,0.00,,,0.00,,2013-03-05 19:21:00,
2013-03-05 13:32:00,26.0,24.0,30.19,WNW,301,14.0,23.0,91,0.00,,,0.00,,2013-03-05 19:32:00,
2013-03-05 13:42:00,26.0,24.0,30.19,WNW,301,14.0,23.0,91,0.00,,,0.00,,2013-03-05 19:42:00,
2013-03-05 13:52:00,26.0,24.0,30.19,NW,304,18.0,26.0,92,0.00,,,0.00,,2013-03-05 19:52:00,
2013-03-05 14:01:00,26.0,24.0,30.19,NW,314,17.0,28.0,92,0.00,,,0.00,,2013-03-05 20:01:00,
2013-03-05 14:11:00,26.0,23.0,30.19,WNW,294,17.0,28.0,87,0.00,,,0.00,,2013-03-05 20:11:00,
2013-03-05 14:21:00,26.0,23.0,30.19,WNW,294,17.0,28.0,87,0.00,,,0.00,,2013-03-05 20:21:00,
2013-03-05 14:32:00,26.0,23.0,30.20,NW,311,13.0,21.0,90,0.00,,,0.00,,2013-03-05 20:32:00,
2013-03-05 14:41:00,26.0,23.0,30.20,NW,311,13.0,21.0,90,0.00,,,0.00,,2013-03-05 20:41:00,
2013-03-05 14:52:00,26.0,23.0,30.21,WNW,294,17.0,26.0,88,0.00,,,0.00,,2013-03-05 20:52:00,
2013-03-05 15:01:00,26.0,22.0,30.21,WNW,294,16.0,23.0,86,0.00,,,0.00,,2013-03-05 21:01:00,
2013-03-05 15:11:00,26.0,22.0,30.21,WNW,294,16.0,23.0,86,0.00,,,0.00,,2013-03-05 21:11:00,
2013-03-05 15:21:00,26.0,23.0,30.22,NW,309,15.0,22.0,88,0.00,,,0.00,,2013-03-05 21:21:00,
2013-03-05 15:31:00,26.0,23.0,30.22,NW,308,12.0,15.0,89,0.00,,,0.00,,2013-03-05 21:31:00,
2013-03-05 15:41:00,26.0,23.0,30.22,NW,308,12.0,15.0,89,0.00,,,0.00,,2013-03-05 21:41:00,
2013-03-05 15:52:00,26.0,23.0,30.23,NW,310,15.0,18.0,90,0.00,,,0.00,,2013-03-05 21:52:00,
2013-03-05 16:01:00,26.0,23.0,30.23,WNW,302,17.0,22.0,88,0.00,,,0.00,,2013-03-05 22:01:00,
2013-03-05 16:11:00,26.0,23.0,30.23,WNW,302,17.0,22.0,88,0.00,,,0.00,,2013-03-05 22:11:00,
2013-03-05 16:21:00,26.0,24.0,30.24,WNW,298,13.0,22.0,92,0.00,,,0.00,,2013-03-05 22:21:00,
2013-03-05 16:32:00,26.0,23.0,30.25,NW,311,14.0,21.0,90,0.00,,,0.00,,2013-03-05 22:32:00,
2013-03-05 16:41:00,26.0,23.0,30.25,NW,311,14.0,21.0,90,0.00,,,0.00,,2013-03-05 22:41:00,
2013-03-05 16:52:00,25.0,22.0,30.25,WNW,293,16.0,26.0,89,0.00,,,0.00,,2013-03-05 22:52:00,
2013-03-05 17:01:00,26.0,23.0,30.26,WNW,299,16.0,21.0,87,0.00,,,0.00,,2013-03-05 23:01:00,
2013-03-05 17:11:00,26.0,23.0,30.26,WNW,299,16.0,21.0,87,0.00,,,0.00,,2013-03-05 23:11:00,
2013-03-05 17:21:00,25.0,22.0,30.27,WNW,300,14.0,18.0,88,0.00,,,0.00,,2013-03-05 23:21:00,
2013-03-05 17:32:00,25.0,22.0,30.27,NW,307,18.0,23.0,87,0.00,,,0.00,,2013-03-05 23:32:00,
2013-03-05 17:41:00,25.0,22.0,30.27,NW,307,18.0,23.0,87,0.00,,,0.00,,2013-03-05 23:41:00,
2013-03-05 17:52:00,24.0,21.0,30.28,NW,311,17.0,24.0,88,0.00,,,0.00,,2013-03-05 23:52:00,
2013-03-05 18:01:00,24.0,22.0,30.29,NW,305,16.0,20.0,90,0.00,,,0.00,,2013-03-06 00:01:00,
2013-03-05 18:11:00,24.0,22.0,30.29,NW,305,16.0,20.0,90,0.00,,,0.00,,2013-03-06 00:11:00,
2013-03-05 18:21:00,24.0,22.0,30.30,WNW,300,12.0,24.0,92,0.00,,,0.00,,2013-03-06 00:21:00,
2013-03-05 18:32:00,24.0,22.0,30.29,NW,321,12.0,15.0,93,0.00,,,0.00,,2013-03-06 00:32:00,
2013-03-05 18:41:00,24.0,22.0,30.29,NW,321,12.0,15.0,93,0.00,,,0.00,,2013-03-06 00:41:00,
2013-03-05 18:52:00,23.0,21.0,30.30,WNW,300,15.0,20.0,93,0.00,,,0.00,,2013-03-06 00:52:00,
2013-03-05 19:01:00,22.0,20.0,30.30,WNW,292,13.0,22.0,92,0.00,,,0.00,,2013-03-06 01:01:00,
2013-03-05 19:11:00,22.0,20.0,30.30,WNW,292,13.0,22.0,92,0.00,,,0.00,,2013-03-06 01:11:00,
2013-03-05 19:21:00,23.0,21.0,30.31,WNW,302,14.0,18.0,92,0.00,,,0.00,,2013-03-06 01:21:00,
2013-03-05 19:32:00,23.0,21.0,30.32,WNW,302,13.0,17.0,93,0.00,,,0.00,,2013-03-06 01:32:00,
2013-03-05 19:41:00,23.0,21.0,30.32,WNW,302,13.0,17.0,93,0.00,,,0.00,,2013-03-06 01:41:00,
2013-03-05 19:52:00,22.0,20.0,30.32,NW,306,13.0,18.0,93,0.00,,,0.00,,2013-03-06 01:52:00,
2013-03-05 20:01:00,22.0,21.0,30.33,NW,307,9.0,12.0,94,0.00,,,0.00,,2013-03-06 02:01:00,
2013-03-05 20:11:00,22.0,21.0,30.33,NW,307,9.0,12.0,94,0.00,,,0.00,,2013-03-06 02:11:00,
2013-03-05 20:22:00,22.0,21.0,30.33,NW,311,9.0,14.0,94,0.00,,,0.00,,2013-03-06 02:22:00,
2013-03-05 20:31:00,22.0,20.0,30.33,NW,310,12.0,13.0,93,0.00,,,0.00,,2013-03-06 02:31:00,
2013-03-05 20:41:00,22.0,20.0,30.33,NW,310,12.0,13.0,93,0.00,,,0.00,,2013-03-06 02:41:00,
2013-03-05 20:52:00,22.0,21.0,30.34,NW,313,10.0,13.0,94,0.00,,,0.00,,2013-03-06 02:52:00,
2013-03-05 21:01:00,22.0,21.0,30.34,NW,322,8.0,14.0,95,0.00,,,0.00,,2013-03-06 03:01:00,
2013-03-05 21:11:00,22.0,21.0,30.34,NW,322,8.0,14.0,95,0.00,,,0.00,,2013-03-06 03:11:00,
2013-03-05 21:21:00,22.0,21.0,30.35,NW,311,8.0,10.0,94,0.00,,,0.00,,2013-03-06 03:21:00,
2013-03-05 21:31:00,23.0,22.0,30.35,NW,314,10.0,14.0,94,0.00,,,0.00,,2013-03-06 03:31:00,
2013-03-05 21:42:00,23.0,22.0,30.35,NW,314,10.0,14.0,94,0.00,,,0.00,,2013-03-06 03:42:00,
2013-03-05 21:52:00,22.0,21.0,30.35,NNW,328,8.0,8.0,96,0.00,,,0.00,,2013-03-06 03:52:00,
2013-03-05 22:02:00,22.0,21.0,30.35,NW,322,9.0,12.0,96,0.00,,,0.00,,2013-03-06 04:02:00,
2013-03-05 22:11:00,22.0,21.0,30.35,NW,322,9.0,12.0,96,0.00,,,0.00,,2013-03-06 04:11:00,
2013-03-05 22:21:00,22.0,20.0,30.36,NW,320,8.0,12.0,93,0.00,,,0.00,,2013-03-06 04:21:00,
2013-03-05 22:32:00,22.0,21.0,30.37,WNW,301,9.0,13.0,94,0.00,,,0.00,,2013-03-06 04:32:00,
2013-03-05 22:41:00,22.0,21.0,30.37,WNW,301,9.0,13.0,94,0.00,,,0.00,,2013-03-06 04:41:00,
2013-03-05 22:52:00,22.0,21.0,30.37,NW,325,8.0,10.0,94,0.00,,,0.00,,2013-03-06 04:52:00,
2013-03-05 23:01:00,22.0,20.0,30.37,NW,325,8.0,10.0,93,0.00,,,0.00,,2013-03-06 05:01:00,
2013-03-05 23:11:00,22.0,20.0,30.37,NNW,328,7.0,10.0,93,0.00,,,0.00,,2013-03-06 05:11:00,
2013-03-05 23:22:00,22.0,20.0,30.37,NNW,328,7.0,10.0,93,0.00,,,0.00,,2013-03-06 05:22:00,
2013-03-05 23:32:00,21.0,19.0,30.37,WNW,303,9.0,12.0,93,0.00,,,0.00,,2013-03-06 05:32:00,
2013-03-05 23:42:00,21.0,19.0,30.37,WNW,303,9.0,12.0,93,0.00,,,0.00,,2013-03-06 05:42:00,
2013-03-05 23:52:00,21.0,20.0,30.38,NW,322,6.0,8.0,94,0.00,,,0.00,,2013-03-06 05:52:00,